Probability
0 0 0 0 3 16 42 68 87 94 97 100 97 55 29 10 19 42 87 90 71 55 39 10 23 42 94 90 81 87 84 87 87 100 100 100 100 61 32 55 74 100 100
0 0 0 0 0 0 3 13 26 42 52 81 97 100 65 26 10 10 35 52 55 71 52 42 32 32 71 97 100 100 90 81 94 100 100 100 100 94 23 35 71 100 97
0 0 0 0 0 0 0 0 0 3 3 16 45 74 94 94 77 45 35 29 39 42 39 45 52 77 94 100 100 100 97 97 100 100 100 100 100 100 97 100 74 97 97
0 0 0 0 0 0 0 0 0 0 0 0 0 13 35 71 87 94 84 61 58 58 52 48 68 90 97 100 100 100 100 100 100 100 100 16 100 100 100 100 97 100 100
0 0 0 0 0 0 0 0 0 0 0 0 0 0 3 19 39 55 58 61 55 52 58 65 90 97 100 100 100 100 100 100 100 100 0 0 29 100 100 100 100 100 100
0 0 0 0 0 0 0 0 0 0 0 0 0 0 0 0 3 6 13 26 29 35 48 71 97 100 97 94 97 100 100 100 100 55 0 0 77 100 100 100 100 100 100
0 0 0 0 0 0 0 0 0 0 0 0 0 0 0 0 0 0 0 0 3 16 35 52 71 84 90 90 94 90 94 100 100 0 0 6 100 100 100 100 100 100 100
0 0 0 0 0 0 0 0 0 0 0 0 0 0 0 0 0 0 0 0 0 0 10 19 42 55 74 84 100 97 100 81 23 0 3 23 97 100 100 100 100 100 100
0 0 0 0 0 0 0 0 0 0 0 0 0 0 0 0 0 0 0 0 0 0 0 0 6 3 29 65 87 97 100 87 0 0 26 16 100 100 100 100 100 100 100
0 0 0 0 0 0 0 0 0 0 0 0 0 0 0 0 0 0 0 0 0 0 0 0 0 0 3 35 58 97 97 94 0 0 0 45 100 100 100 100 100 100 100
0 0 0 0 0 0 0 0 0 0 0 0 0 0 0 0 0 0 0 0 0 0 0 0 0 0 0 3 45 77 81 10 0 0 0 71 100 100 100 100 100 100 100
0 0 0 0 0 0 0 0 0 0 0 0 0 0 0 0 0 0 0 0 0 0 0 0 0 0 0 0 0 0 0 0 0 0 0 100 100 97 94 100 100 100 100
0 0 0 0 0 0 0 0 0 0 0 0 0 0 0 0 0 0 0 0 0 0 0 0 0 0 0 0 0 0 0 0 0 0 0 97 100 87 68 84 100 100 100
0 0 0 0 0 0 0 0 0 0 0 0 0 0 0 0 0 0 0 0 0 0 0 0 0 0 0 0 0 0 0 0 0 0 0 84 100 87 65 65 74 100 100
0 0 0 0 0 0 0 0 0 0 0 0 0 0 0 0 0 0 0 0 0 0 0 0 0 0 0 0 0 0 0 0 0 0 0 29 84 81 52 42 52 65 90
0 0 0 0 0 0 0 0 0 0 0 0 0 0 0 0 0 0 0 0 0 0 0 0 0 0 0 0 0 0 0 0 0 0 0 0 0 48 65 13 16 45 65
0 0 0 0 0 0 0 0 0 0 0 0 0 0 0 0 0 0 0 0 0 0 0 0 0 0 0 0 0 0 0 0 0 0 0 0 0 0 10 29 13 16 61
0 0 0 0 0 0 0 0 0 0 0 0 0 0 0 0 0 0 0 0 0 0 0 0 0 0 0 0 0 0 0 0 0 0 0 0 0 0 0 13 65 42 55
0 0 0 0 0 0 0 0 0 0 0 0 0 0 0 0 0 0 0 0 0 0 0 0 0 0 0 0 0 0 0 0 0 0 0 0 0 0 0 0 0 39 61
0 0 0 0 0 0 0 0 0 0 0 0 0 0 0 0 0 0 0 0 0 0 0 0 0 0 0 0 0 0 0 0 0 0 0 0 0 0 0 0 0 0 10
0 0 0 0 0 0 0 0 0 0 0 0 0 0 0 0 0 0 0 0 0 0 0 0 0 0 0 0 0 0 0 0 0 0 0 0 0 0 0 0 0 0 0
0 0 0 0 0 0 0 0 0 0 0 0 0 0 0 0 0 0 0 0 0 0 0 0 0 0 0 0 0 0 0 0 0 0 0 0 0 0 0 0 0 0 0
0 0 0 0 0 0 0 0 0 0 0 0 0 0 0 0 0 0 0 0 0 0 0 0 0 0 0 0 0 0 0 0 0 0 0 0 0 0 0 0 0 0 0
0 0 0 0 0 0 0 0 0 0 0 0 0 0 0 0 0 0 0 0 0 0 0 0 0 0 0 0 0 0 0 0 0 0 0 0 0 0 0 0 0 0 0
0 0 0 0 0 0 0 0 0 0 0 0 0 0 0 0 0 0 0 0 0 0 0 0 0 0 0 0 0 0 0 0 0 0 0 0 0 0 0 0 0 0 0
0 0 0 0 0 0 0 0 0 0 0 0 0 0 0 0 0 0 0 0 0 0 0 0 0 0 0 0 0 0 0 0 0 0 0 0 0 0 0 0 0 0 0
Height
5870 5869 5868 5867 5866 5866 5866 5866 5866 5865 5865 5865 5864 5865 5865 5865 5864 5864 5864 5864 5864 5864 5864 5864 5864 5865 5865 5865 5866 5867 5868 5868 5868 5869 5871 5872 5873 5874 5876 5877 5878 5878 5880
5866 5865 5865 5864 5863 5862 5862 5861 5860 5860 5860 5860 5859 5859 5858 5858 5858 5858 5858 5858 5859 5859 5859 5860 5860 5860 5861 5861 5862 5863 5864 5865 5865 5866 5867 5868 5870 5872 5873 5875 5876 5876 5877
5863 5863 5862 5861 5860 5859 5858 5857 5856 5855 5854 5854 5854 5853 5853 5852 5851 5851 5851 5852 5852 5853 5853 5854 5854 5855 5856 5857 5857 5858 5860 5861 5861 5862 5863 5864 5866 5868 5870 5872 5874 5875 5875
5861 5860 5859 5858 5857 5855 5854 5852 5851 5849 5848 5847 5846 5846 5845 5845 5845 5845 5845 5844 5845 5845 5846 5847 5847 5848 5849 5851 5852 5853 5854 5855 5856 5858 5859 5861 5862 5863 5865 5868 5870 5872 5873
5859 5858 5856 5855 5853 5851 5849 5847 5845 5843 5842 5840 5839 5838 5837 5837 5837 5837 5837 5837 5837 5837 5837 5839 5840 5841 5842 5844 5845 5846 5848 5849 5850 5852 5854 5856 5857 5858 5860 5863 5866 5868 5869
5856 5854 5852 5850 5848 5846 5844 5841 5839 5837 5835 5833 5831 5830 5829 5828 5828 5828 5828 5828 5829 5829 5828 5829 5830 5832 5834 5836 5837 5839 5840 5842 5843 5845 5848 5851 5852 5852 5854 5857 5860 5862 5865
5851 5850 5848 5846 5843 5841 5838 5836 5833 5831 5828 5826 5824 5822 5820 5819 5818 5817 5818 5818 5818 5819 5820 5820 5821 5822 5824 5826 5828 5829 5831 5833 5835 5838 5841 5844 5845 5846 5848 5851 5854 5857 5859
5849 5847 5845 5842 5839 5836 5833 5830 5827 5824 5821 5818 5816 5813 5811 5809 5808 5807 5806 5806 5807 5807 5808 5809 5811 5812 5813 5815 5817 5819 5821 5824 5827 5830 5833 5835 5837 5839 5841 5845 5848 5851 5854
5846 5843 5840 5837 5833 5829 5826 5822 5819 5816 5812 5809 5807 5804 5801 5799 5797 5796 5795 5794 5794 5794 5796 5797 5799 5800 5802 5804 5806 5808 5810 5813 5817 5820 5823 5826 5829 5831 5834 5838 5841 5844 5847
5841 5837 5833 5829 5825 5821 5817 5812 5808 5805 5801 5797 5794 5792 5790 5788 5786 5784 5783 5782 5781 5781 5782 5783 5785 5787 5790 5792 5794 5796 5799 5802 5805 5809 5812 5816 5819 5822 5826 5830 5833 5836 5840
5834 5829 5824 5819 5814 5809 5804 5799 5794 5790 5785 5782 5779 5776 5774 5772 5770 5769 5768 5768 5767 5767 5768 5769 5770 5772 5775 5778 5781 5784 5787 5790 5793 5797 5801 5805 5809 5812 5816 5820 5824 5828 5832
5826 5820 5815 5809 5803 5797 5791 5785 5779 5774 5768 5764 5760 5757 5755 5753 5751 5750 5750 5750 5751 5751 5752 5754 5755 5757 5759 5763 5766 5770 5774 5777 5781 5785 5790 5794 5798 5801 5806 5810 5815 5819 5823
5818 5811 5804 5797 5790 5783 5776 5769 5762 5756 5749 5744 5739 5736 5734 5731 5730 5729 5728 5728 5730 5732 5735 5737 5738 5740 5743 5747 5751 5754 5758 5763 5767 5772 5777 5782 5786 5790 5795 5800 5804 5809 5813
5809 5801 5793 5785 5777 5768 5760 5751 5744 5736 5729 5722 5716 5712 5709 5706 5705 5704 5704 5704 5706 5709 5713 5716 5718 5721 5726 5730 5734 5738 5742 5747 5753 5758 5763 5769 5773 5777 5783 5789 5794 5799 5803
5797 5788 5779 5769 5760 5751 5742 5732 5723 5714 5707 5699 5693 5687 5683 5680 5678 5676 5676 5678 5680 5684 5688 5692 5696 5701 5706 5711 5715 5721 5726 5731 5737 5742 5748 5755 5761 5765 5771 5777 5783 5788 5793
5783 5773 5763 5752 5741 5731 5720 5710 5699 5689 5680 5671 5664 5658 5654 5651 5649 5648 5647 5649 5652 5657 5661 5665 5670 5677 5683 5689 5696 5702 5708 5714 5720 5726 5732 5738 5745 5752 5758 5764 5771 5777 5782
5769 5758 5747 5735 5723 5710 5698 5685 5674 5662 5652 5643 5636 5630 5626 5622 5620 5620 5620 5621 5624 5628 5632 5638 5644 5651 5659 5666 5674 5681 5689 5696 5703 5709 5715 5722 5729 5738 5745 5751 5758 5765 5771
5754 5742 5729 5716 5703 5689 5675 5661 5648 5637 5627 5619 5612 5607 5603 5600 5598 5597 5596 5597 5598 5600 5604 5610 5616 5625 5633 5641 5650 5659 5667 5676 5685 5692 5699 5706 5713 5722 5730 5737 5745 5752 5759
5738 5724 5711 5696 5682 5667 5652 5638 5627 5617 5608 5601 5595 5590 5585 5582 5579 5577 5576 5576 5576 5576 5578 5582 5588 5597 5606 5614 5624 5634 5644 5655 5664 5674 5682 5690 5697 5705 5714 5722 5730 5738 5746
5721 5706 5691 5675 5660 5645 5632 5621 5611 5601 5592 5585 5578 5573 5568 5564 5561 5559 5557 5557 5556 5556 5556 5558 5562 5569 5577 5586 5597 5608 5621 5632 5642 5653 5663 5672 5681 5689 5699 5707 5715 5724 5732
5705 5689 5673 5657 5641 5628 5616 5604 5594 5585 5575 5567 5559 5553 5548 5544 5541 5539 5538 5537 5537 5538 5538 5539 5541 5544 5550 5558 5569 5582 5596 5608 5620 5631 5642 5653 5663 5673 5682 5691 5700 5709 5718
5690 5672 5655 5638 5624 5610 5597 5585 5574 5564 5555 5546 5539 5532 5527 5523 5519 5517 5516 5516 5517 5518 5520 5521 5523 5526 5528 5533 5542 5554 5570 5585 5593 5609 5620 5631 5643 5654 5663 5674 5684 5693 5703
5675 5656 5638 5622 5608 5594 5581 5569 5559 5549 5540 5532 5525 5517 5510 5504 5500 5497 5495 5495 5496 5498 5500 5503 5506 5509 5512 5515 5519 5528 5543 5556 5570 5586 5598 5611 5622 5633 5645 5656 5667 5677 5687
5658 5640 5623 5607 5593 5580 5568 5557 5547 5537 5528 5520 5512 5505 5498 5491 5486 5481 5478 5476 5476 5477 5480 5483 5488 5491 5495 5499 5501 5506 5516 5529 5545 5562 5576 5589 5602 5615 5627 5639 5650 5661 5672
5643 5626 5610 5596 5582 5570 5558 5546 5536 5526 5516 5507 5499 5492 5485 5479 5473 5468 5464 5460 5458 5458 5460 5463 5468 5472 5477 5481 5485 5488 5494 5504 5519 5537 5553 5566 5579 5594 5607 5620 5633 5645 5656
5631 5615 5601 5587 5574 5561 5549 5537 5526 5516 5506 5496 5488 5480 5473 5466 5460 5455 5450 5446 5443 5441 5442 5444 5448 5453 5458 5463 5467 5471 5474 5482 5495 5511 5529 5544 5558 5575 5588 5602 5615 5629 5641
Wind_Speed
24 27 28 29 31 32 33 32 32 31 31 30 29 28 28 28 27 26 25 24 24 23 22 22 23 23 24 24 23 21 20 19 17 15 13 11 11 10 9 10 11 13 16
24 26 28 29 30 33 35 36 36 36 36 36 35 34 33 32 32 31 31 30 29 28 27 26 26 26 26 26 26 25 24 23 21 19 17 15 14 13 12 11 11 11 12
21 23 25 27 29 32 34 35 36 36 37 38 39 39 38 37 36 36 35 35 34 33 32 30 29 29 28 29 29 29 28 27 25 24 21 19 19 18 16 15 14 13 13
17 19 20 23 24 26 27 28 30 32 33 35 36 37 38 39 40 40 40 39 38 37 36 35 34 32 32 32 33 33 32 31 29 28 27 24 23 22 21 20 19 17 16
17 19 20 22 24 25 27 28 29 30 32 33 35 36 37 39 39 40 41 42 41 41 40 39 38 37 36 35 36 37 36 35 34 33 31 29 28 27 25 24 23 22 20
19 20 22 24 25 27 29 30 32 33 35 36 37 39 40 41 41 42 42 42 43 43 43 42 41 40 40 39 39 39 40 39 38 36 35 33 32 31 29 27 26 25 23
20 22 24 26 28 29 31 32 34 36 37 39 40 41 42 44 45 46 46 46 45 45 46 45 45 44 43 42 42 41 42 42 41 40 38 37 37 36 34 31 29 28 26
23 25 28 30 32 34 36 37 39 40 42 43 44 45 46 46 46 47 49 50 50 50 49 48 49 48 46 45 44 43 44 44 44 43 42 41 41 40 38 35 33 31 30
29 31 34 37 39 41 43 45 46 48 49 49 50 50 51 51 51 51 51 51 52 53 54 54 52 51 50 49 47 46 46 46 45 45 45 45 45 43 41 38 36 35 33
36 38 41 44 47 49 51 53 54 56 57 57 58 58 58 57 57 56 56 56 56 55 55 56 57 57 55 54 52 51 50 49 47 46 47 48 48 46 44 42 39 38 36
42 45 48 51 54 57 59 61 63 64 64 65 65 66 66 65 65 64 62 61 60 59 59 58 57 58 59 58 58 56 54 52 51 50 49 50 49 48 46 44 43 41 39
48 52 55 59 62 64 67 69 71 72 72 72 72 71 71 70 70 70 69 68 67 65 63 62 61 60 60 59 60 60 59 57 55 54 53 52 52 50 48 46 45 44 42
56 59 63 66 69 72 74 76 78 79 80 80 80 79 76 74 73 73 73 73 72 71 69 67 65 64 63 62 60 61 63 63 60 59 58 57 55 54 50 48 47 46 45
60 64 67 71 74 77 79 81 83 84 85 86 86 86 84 81 78 76 75 75 74 74 74 73 71 69 67 66 64 63 63 64 65 64 63 61 59 57 55 52 50 49 47
65 68 72 76 78 80 82 84 85 86 87 89 90 91 91 89 85 81 78 76 76 75 75 76 76 74 71 69 68 67 65 64 66 67 67 64 63 60 58 56 54 52 51
69 73 77 80 81 83 86 88 90 91 92 94 94 94 93 91 87 84 80 78 77 77 77 77 77 78 76 74 72 71 70 67 66 66 68 67 66 64 62 60 58 56 54
74 77 80 83 85 88 90 92 93 94 93 90 86 83 79 76 74 72 71 71 73 74 76 77 79 79 79 78 77 75 73 72 69 67 68 68 67 66 65 63 60 58 56
77 80 83 86 88 89 89 89 86 82 77 71 66 63 61 59 58 58 58 60 63 66 69 72 77 80 81 81 81 79 78 76 75 71 68 68 68 66 65 65 63 60 59
79 82 86 88 88 87 84 79 73 68 64 60 58 57 56 54 54 53 53 53 55 59 62 66 71 77 82 84 84 83 82 80 79 77 74 71 69 67 64 64 64 63 61
83 86 88 88 86 81 76 71 67 65 63 61 59 59 58 57 56 55 54 53 54 54 55 58 63 71 80 86 88 87 86 84 83 81 79 76 73 70 66 63 64 64 63
86 87 88 86 80 76 73 71 69 67 66 65 64 63 62 61 60 59 57 56 55 54 53 51 53 60 72 85 90 91 89 87 86 85 83 80 76 71 69 65 64 65 65
86 86 85 81 78 75 73 71 68 65 63 61 61 60 59 60 60 60 59 58 57 57 55 53 50 50 55 70 86 94 93 91 90 87 86 84 80 76 73 69 66 64 65
84 84 82 80 76 72 68 63 58 54 51 49 48 47 46 47 50 53 55 56 57 58 59 57 54 50 48 52 67 87 96 95 92 90 88 86 83 80 77 73 69 66 66
83 83 80 75 69 64 60 58 55 53 51 49 47 46 44 43 43 44 46 48 52 55 58 60 59 55 51 48 51 67 87 97 96 92 89 88 85 82 79 77 74 70 68
82 81 74 67 62 60 59 58 57 55 54 52 51 49 47 45 44 44 44 43 45 48 53 57 59 58 54 50 48 52 68 89 97 96 91 89 87 83 79 76 76 74 71
81 75 67 63 61 60 59 59 58 57 56 54 53 50 48 46 45 44 44 44 43 43 46 51 56 57 56 53 50 49 55 73 90 97 95 90 88 84 80 76 74 75 74
Wind_Direction
264 264 264 265 264 264 262 261 261 261 261 261 262 263 264 264 264 263 262 262 262 261 260 255 249 246 243 240 238 237 236 237 234 237 241 241 237 231 225 228 230 229 229
272 271 270 271 272 271 270 269 268 268 267 265 264 263 263 263 263 263 264 263 261 260 259 258 254 250 247 243 240 238 235 235 235 235 237 240 241 239 233 229 232 232 229
286 284 282 282 282 280 278 278 278 277 275 273 272 270 269 266 264 262 262 262 262 260 258 257 255 252 249 246 243 240 237 234 235 236 236 238 240 242 240 235 232 231 229
306 302 300 298 295 292 289 286 285 283 281 279 277 275 272 270 268 265 262 260 259 259 257 256 254 251 250 247 244 242 239 236 235 236 237 237 238 241 243 242 237 231 229
312 310 306 303 299 297 295 292 289 286 284 282 280 277 274 271 268 266 265 262 259 256 255 255 254 251 249 247 245 243 241 238 235 236 237 236 238 240 243 245 243 237 232
316 312 307 303 300 297 294 291 289 286 284 282 280 278 276 274 271 268 265 263 261 258 254 252 252 251 249 247 245 243 242 240 237 236 236 236 238 240 240 243 246 243 238
318 313 309 306 303 300 296 293 290 288 286 283 281 278 276 274 272 270 268 265 263 261 260 256 252 250 249 248 245 244 243 241 239 237 236 236 237 240 239 239 243 245 243
319 316 313 311 308 306 303 300 297 294 291 288 285 282 280 277 274 271 269 267 265 262 261 260 258 254 251 249 247 245 243 242 241 238 237 236 236 238 239 238 241 244 245
324 321 318 315 312 310 307 304 302 299 295 292 289 286 283 280 278 275 272 270 267 264 262 259 258 257 255 250 248 246 244 242 241 240 238 238 238 239 240 240 240 243 245
321 318 316 313 311 308 306 304 302 299 297 294 291 288 284 281 279 276 274 271 268 266 263 261 258 255 255 252 249 246 244 242 240 238 239 239 240 240 240 240 241 242 244
316 315 313 311 310 308 306 303 301 299 297 294 292 289 286 283 280 276 273 270 268 267 264 262 259 256 253 251 250 247 245 242 240 237 237 238 239 239 239 240 241 242 243
314 313 312 310 309 307 306 304 302 300 297 294 291 288 286 283 280 277 273 270 267 265 264 262 260 257 254 251 249 248 246 243 241 238 237 237 237 237 237 237 239 240 241
313 311 310 308 307 306 305 303 302 300 298 296 293 290 286 282 278 275 272 270 267 264 262 260 259 257 255 252 249 246 246 244 241 239 237 236 236 235 234 234 236 238 240
311 310 308 307 306 305 304 302 300 298 297 295 293 291 288 285 280 275 271 268 265 263 260 258 257 255 254 252 249 246 244 244 242 240 238 236 236 235 234 233 234 236 237
312 311 310 308 307 305 302 300 299 297 295 293 290 288 285 283 280 276 271 266 263 260 258 256 254 253 251 250 249 246 244 243 242 240 239 237 235 235 234 233 233 234 235
314 312 311 309 307 305 302 301 299 296 294 291 289 287 285 282 279 274 270 266 261 258 255 253 251 249 248 247 246 246 244 241 241 240 239 237 235 234 234 234 233 234 234
314 313 311 309 308 306 305 303 300 298 296 294 292 289 286 283 279 275 271 268 264 260 255 251 249 246 245 245 243 243 242 241 239 239 238 237 236 233 233 233 233 233 234
315 314 313 311 310 309 307 304 302 302 301 298 294 289 285 280 276 273 270 268 266 263 259 254 249 245 243 241 241 240 239 239 238 237 237 237 236 234 231 231 232 233 234
318 317 315 315 313 311 308 308 308 306 303 299 293 289 285 282 279 276 274 273 271 268 263 257 250 245 242 239 238 237 236 237 237 236 236 236 236 235 232 230 230 231 232
321 319 319 318 315 313 312 310 308 305 301 297 293 289 286 284 281 278 276 274 271 268 265 261 254 246 240 237 236 235 234 234 234 235 235 235 235 235 232 230 229 229 230
322 322 321 317 315 314 312 309 306 303 299 296 293 290 286 284 281 278 275 271 269 265 263 261 258 251 243 236 233 233 232 231 232 233 233 233 233 234 232 230 229 228 229
325 323 320 319 319 317 314 312 310 308 306 302 299 295 291 287 283 279 275 270 266 261 259 258 258 257 251 242 235 230 229 229 228 230 231 232 231 231 231 229 228 228 227
326 324 322 322 321 320 319 319 319 318 315 312 309 306 302 295 289 283 278 272 266 260 256 254 255 256 255 251 243 234 228 227 226 226 228 230 230 229 230 229 227 226 226
327 325 325 325 324 324 325 325 324 323 321 318 316 313 310 305 299 292 285 278 270 264 257 253 252 254 253 253 251 242 233 227 225 224 225 226 228 228 229 229 227 225 225
328 327 329 328 328 328 329 328 327 325 323 321 318 315 312 309 304 298 292 285 276 268 261 255 251 251 252 252 252 249 240 232 226 223 222 224 224 225 226 227 227 225 225
329 330 331 331 331 331 331 329 327 325 323 321 319 317 314 310 306 301 295 289 282 273 264 256 251 249 250 250 252 252 247 237 230 224 220 221 222 221 223 224 225 225 225